Flight Track Log - Related Links

Times and Time Zones

All times are in EDT time to prevent confusion due to time zone crossing. See the UAL3732 flight status page for this flight to view local times or setup timezone preferences in your user account.

Time Position Orientation Groundspeed Altitude Reporting Facility
EDT Latitude Longitude Course Direction KTS MPH feet Rate Location/Type
Sun 07:34:13 PM 39.7000 -86.3000 79° East 157 181 1,500  Level Indianapolis TRACON
Sun 07:34:43 PM 39.6833 -86.3167 218° Southwest 155 178 2,700 1,929 Climbing Indianapolis TRACON
Sun 07:35:37 PM 39.6347 -86.3767 224° Southwest 207 238 4,200 2,483 Climbing Indianapolis Center
Sun 07:36:39 PM 39.5775 -86.3361 151° Southeast 264 304 7,500 2,855 Climbing Indianapolis Center
Sun 07:37:41 PM 39.5942 -86.2317 78° East 306 352 10,100 2,049 Climbing Indianapolis Center
Sun 07:38:00 PM 39.8351 -85.4383 79° East  Level FlightAware Approximate
Sun 07:38:42 PM 39.6272 -86.1183 69° East 335 386 11,700  Level Indianapolis Center
Sun 07:39:00 PM 39.8613 -85.2686 79° East  Level FlightAware Approximate
Sun 07:39:44 PM 39.6650 -85.9919 69° East 371 427 14,000  Level Indianapolis Center
Sun 07:40:46 PM 39.7047 -85.8567 69° East 396 456 16,000 1,984 Climbing Indianapolis Center
Sun 07:41:48 PM 39.7542 -85.6903 69° East 420 483 18,100 1,951 Climbing Indianapolis Center
Sun 07:42:49 PM 39.7975 -85.5417 69° East 435 501 20,000 1,756 Climbing Indianapolis Center
Sun 07:43:51 PM 39.8411 -85.3900 69° East 445 512 21,700 1,597 Climbing Indianapolis Center
Sun 07:44:53 PM 39.8869 -85.2342 69° East 457 526 23,300 1,452 Climbing Indianapolis Center
Sun 07:45:55 PM 39.9192 -85.0711 76° East 470 541 24,700 829 Climbing Indianapolis Center
Sun 07:46:56 PM 39.9242 -84.8889 88° East 486 559 25,000 244 Climbing Indianapolis Center
Sun 07:47:58 PM 39.9314 -84.7014 87° East 512 589 25,200 629 Climbing Indianapolis Center
Sun 07:49:00 PM 39.9383 -84.5142 87° East 513 590 26,300 1,024 Climbing Indianapolis Center
Sun 07:50:01 PM 39.9453 -84.3272 87° East 514 592 27,300 976 Climbing Indianapolis Center
Sun 07:51:03 PM 39.9514 -84.1397 88° East 514 592 28,300 968 Climbing Indianapolis Center
Sun 07:52:05 PM 39.9581 -83.9517 87° East 514 592 29,300 1,065 Climbing Indianapolis Center
Sun 07:53:07 PM 39.9650 -83.7317 88° East 515 593 30,500 1,122 Climbing Indianapolis Center
Sun 07:54:08 PM 39.9703 -83.5417 88° East 513 590 31,600 927 Climbing Indianapolis Center
Sun 07:55:10 PM 39.9758 -83.3814 87° East 513 590 32,400 677 Climbing Indianapolis Center
Sun 07:56:12 PM 39.9806 -83.1594 88° East 514 592 33,000 293 Climbing Indianapolis Center
Sun 07:57:13 PM 39.9856 -82.9647 88° East 524 603 33,000  Level Indianapolis Center
Sun 07:58:15 PM 39.9903 -82.7689 88° East 533 613 33,000  Level Indianapolis Center
Sun 07:59:17 PM 39.9936 -82.5753 89° East 531 611 33,000  Level Indianapolis Center
Sun 08:00:19 PM 39.9981 -82.3819 88° East 530 610 33,000 -49 Level Indianapolis Center
Sun 08:01:20 PM 40.0008 -82.1892 89° East 528 608 32,900  Descending Indianapolis Center
Sun 08:02:22 PM 40.0042 -81.9961 89° East 527 606 33,000 48 Climbing Indianapolis Center
Sun 08:03:24 PM 40.0069 -81.8039 89° East 529 609 33,000  Level Indianapolis Center
Sun 08:04:25 PM 40.0100 -81.5856 89° East 526 605 33,000  Level Indianapolis Center
Sun 08:05:27 PM 39.9803 -81.3958 101° East 531 611 33,000  Level Indianapolis Center
Sun 08:06:29 PM 39.9389 -81.2317 108° East 526 605 33,000  Level Indianapolis Center
Sun 08:07:08 PM 39.9117 -81.1056 106° East 523 602 33,000  Level Cleveland Center
Sun 08:08:08 PM 39.8664 -80.9267 108° East 523 602 33,000 -99 Level Cleveland Center
Sun 08:09:09 PM 39.8189 -80.7397 108° East 528 608 32,800 -767 Descending Cleveland Center
Sun 08:11:00 PM 39.7264 -80.3914 109° East 488 562 30,800 -1,053 Descending Washington Center
Sun 08:12:00 PM 39.6794 -80.2103 109° East 559 643 29,800 -1,000 Descending Washington Center
Sun 08:13:00 PM 39.6339 -80.0350 109° East 517 595 28,800 -1,000 Descending Washington Center
Sun 08:14:00 PM 39.5900 -79.8625 108° East 504 580 27,800 -900 Descending Washington Center
Sun 08:15:00 PM 39.5439 -79.6903 109° East 504 580 27,000 -400 Descending Washington Center
Sun 08:16:00 PM 39.4994 -79.5292 110° East 478 550 27,000 -500 Level Washington Center
Sun 08:17:00 PM 39.4764 -79.3986 103° East 464 534 26,000 -1,400 Descending Washington Center
Sun 08:18:00 PM 39.4381 -79.2247 106° East 455 524 24,200 -1,750 Descending Washington Center
Sun 08:19:00 PM 39.4092 -79.0728 104° East 455 524 22,500 -2,350 Descending Washington Center
Sun 08:20:00 PM 39.3842 -78.9214 102° East 433 498 19,500 -3,050 Descending Washington Center
Sun 08:21:00 PM 39.3569 -78.7778 104° East 421 484 16,400 -2,500 Descending Washington Center
Sun 08:22:00 PM 39.3333 -78.6453 103° East 403 464 14,500 -1,900 Descending Washington Center
Sun 08:23:00 PM 39.3114 -78.5208 103° East 372 428 12,600 -1,700 Descending Washington Center
Sun 08:24:00 PM 39.2892 -78.3967 103° East 360 414 11,100 -800 Descending Washington Center
Sun 08:25:00 PM 39.2458 -78.2958 119° Southeast 338 389 11,000 -450 Descending Washington Center
Sun 08:26:00 PM 39.1978 -78.2003 123° Southeast 325 374 10,200 -1,300 Descending Washington Center
Sun 08:27:00 PM 39.1478 -78.1075 125° Southeast 320 368 8,400 -1,600 Descending Washington Center
Sun 08:28:00 PM 39.0994 -78.0175 125° Southeast 315 362 7,000 -1,100 Descending Washington Center
Sun 08:29:00 PM 39.0533 -77.9278 123° Southeast 308 354 6,200 -450 Descending Washington Center
Sun 08:30:00 PM 39.0050 -77.8356 124° Southeast 286 329 6,100 -50 Descending Washington Center
Sun 08:31:00 PM 38.9689 -77.7542 120° Southeast 286 329 6,100  Level Washington Center
Sun 08:32:07 PM 38.9667 -77.6167 91° East 304 350 6,100 -425 Level Potomac TRACON
Sun 08:33:07 PM 39.0333 -77.5667 30° Northeast 259 298 5,200 -947 Descending Potomac TRACON
Sun 08:34:01 PM 39.0833 -77.5667 360° North 205 236 4,300 -1,000 Descending Potomac TRACON
Sun 08:35:01 PM 39.1167 -77.5333 38° Northeast 218 251 3,300 -1,091 Descending Potomac TRACON
Sun 08:36:02 PM 39.1000 -77.4833 113° Southeast 182 209 2,100 -595 Descending Potomac TRACON
Sun 08:37:02 PM 39.0667 -77.4500 142° Southeast 146 168 2,100 -300 Level Potomac TRACON
Sun 08:38:02 PM 39.0333 -77.4667 201° Southwest 125 144 1,500 -600 Descending Potomac TRACON

Login

Don't have an account? Register now (free) for customized features, flight alerts, and more!